SCP
-0 -0 -0 -0 -0 0 -0 -0 0 0 0 0 0 0 0 0 0 0 0 -0 -0 -0 -0 -0 -0 -0 0 0 0 0 0 0
-0 -0 -0 -0 -0 -0 -0 -0 -0 0 0 -0 -0 0 0 -0 0 -0 0 0 0 0 -0 -0 -0 0 0 0 0 0 0 0
-0 0 -0 -0 -0 -0 -0 -0 -0 0 -0 -0 0 0 0 -0 -0 -0 -0 0 0 0 -0 -0 -0 0 -0 0 0 0 0 0
-0 -0 -0 -0 -0 -0 -0 -0 -0 -0 -0 -0 -0 -0 -0 -0 -0 0 -0 0 0 0 0 -0 -0 0 0 -0 -0 0 0 0
-0 -0 -0 -0 -0 -0 -0 -0 -0 -0 -0 -0 -0 -0 -0 -0 0 0 -0 -0 0 0 0 -0 0 0 -0 -0 -0 0 0 0
0 -0 -0 -0 -0 -0 -0 -0 -0 -0 -0 -0 -0 -0 -0 -0 -0 -0 -0 -0 -0 0 0 0 0 0 0 -0 -0 -0 0 0
0 -0 -0 -0 -0 -0 -0 -0 -0 -0 -0 -0 -0 -0 -0 -0 -0 -0 -0 -0 -0 0 0 0 0 0 0 0 0 -0 0 0
0 -0 -0 -0 -0 -0 -0 -0 -0 -0 -0 -0 -0 -0 -0 -0 -0 0 0 0 -0 0 0 0 0 0 0 0 0 0 0 0
0 -0 -0 -0 -0 -0 -0 -0 -0 -0 -0 -0 -0 -0 -0 0 -0 -0 -0 0 0 -0 0 0 0 0 0 0 0 0 0 0
0 -0 -0 -0 -0 -0 -0 -0 0 0 -0 -0 -0 -0 -0 0 0 0 -0 -0 -0 0 -0 -0 0 0 0 0 0 0 -0 0
0 -0 -0 -0 -0 -0 -0 -0 0 0 -0 -0 -0 -0 -0 -0 0 0 0 0 0 0 0 0 0 0 0 0 0 0 -0 0
0 0 -0 -0 -0 -0 -0 -0 0 -0 -0 -0 -0 -0 -0 -0 0 -0 0 0 0 0 0 0 0 0 -0 0 0 0 0 0
0 0 -0 -0 -0 -0 -0 -0 -0 -0 -0 -0 -0 -0 -0 -0 0 -0 0 0 0 0 0 0 0 0 0 0 0 0 0 0
0 0 -0 -0 -0 -0 -0 -0 -0 -0 -0 -0 -0 -0 0 0 0 0 0 0 -0 0 0 0 0 0 0 0 0 0 0 -0
1 0 0 -0 -0 -0 -0 -0 -0 -0 -0 -0 -0 0 0 0 0 0 0 0 0 0 0 -0 -0 -0 -0 -0 -0 0 -0 0
1 0 0 0 -0 -0 -0 -0 -0 -0 -0 -0 -0 0 -0 0 0 0 0 0 0 0 -0 -0 -0 -0 -0 -0 -0 -0 -0 -0
1 1 0 0 0 -0 -0 -0 -0 -0 -0 -0 -0 -0 0 0 0 0 0 0 -0 -0 -0 -0 -0 -0 -0 -0 -0 -0 -0 -0
1 2 1 0 0 0 0 -0 -0 -0 -0 0 -0 0 -0 0 0 0 0 0 0 0 0 0 -0 -0 -0 -0 -0 -0 -0 -0
1 3 2 1 0 0 0 0 0 0 0 0 0 -0 0 0 0 0 0 0 0 0 0 0 -0 0 -0 -0 -0 -0 -0 -0
2 3 1 2 0 0 1 0 0 0 0 0 0 0 0 0 0 0 0 0 0 0 0 0 -0 0 0 0 0 0 -0 -0
Wind_Speed_500mb
56 56 53 50 48 43 41 37 33 30 28 21 19 16 11 14 15 19 13 14 13 10 5 5 9 7 4 2 4 8 8 10
56 53 50 46 44 42 38 35 32 28 29 25 19 14 8 19 14 25 20 14 13 13 7 6 4 6 11 17 14 4 2 5
52 49 49 47 44 41 37 35 32 28 28 25 12 9 14 18 16 24 24 20 16 16 7 12 6 9 10 14 10 12 11 17
48 48 47 47 45 41 38 36 33 30 27 22 5 17 21 15 16 22 24 24 16 12 13 15 11 4 14 16 15 18 23 20
47 46 46 46 44 43 40 37 33 31 30 14 24 26 18 21 19 21 20 22 20 18 15 16 12 12 14 17 17 17 24 30
45 45 47 47 42 42 39 37 35 33 33 24 28 26 23 22 19 17 17 22 24 22 18 14 15 11 13 15 17 20 26 35
46 47 49 45 45 44 42 39 37 34 32 33 27 30 24 24 20 21 17 21 22 22 20 19 12 13 13 18 21 20 29 34
49 48 49 49 48 47 44 41 39 37 32 33 32 25 19 21 19 19 13 16 15 16 22 20 13 13 17 25 26 28 35 34
46 50 51 52 52 50 46 42 40 38 34 34 35 26 21 16 13 17 17 15 11 14 25 19 10 15 22 27 27 25 32 36
47 52 53 54 54 53 49 46 41 39 37 37 37 33 28 21 15 20 20 18 19 26 29 21 19 20 30 31 31 34 32 31
33 50 54 55 56 55 51 48 45 42 41 40 44 32 35 22 25 19 21 22 22 29 28 21 18 20 26 34 42 43 41 37
20 51 55 57 58 54 51 50 47 46 47 44 41 39 38 22 25 31 18 18 19 23 23 25 19 11 27 43 51 45 44 45
25 44 56 57 58 56 55 52 50 49 51 49 46 43 41 34 28 27 23 23 27 24 32 22 20 19 30 42 46 48 46 46
21 28 55 56 56 56 56 54 55 54 56 52 49 45 44 37 39 34 29 29 20 14 32 24 19 18 25 39 43 45 46 42
16 29 40 55 55 57 57 57 59 58 61 55 51 46 49 44 42 39 38 36 34 24 26 24 24 25 18 39 49 38 31 36
11 21 39 50 58 58 58 59 61 62 63 57 54 54 49 48 46 43 39 45 41 42 33 30 25 29 25 27 41 44 42 41
14 17 26 45 56 57 59 60 63 65 67 60 58 52 47 44 46 45 43 44 39 40 53 46 39 36 34 31 41 47 51 50
29 18 19 35 46 56 59 61 64 66 65 62 61 52 51 50 47 49 47 45 46 49 50 61 62 55 53 52 52 54 52 50
30 24 10 8 31 46 56 64 66 67 62 60 60 55 52 51 50 51 50 50 51 54 57 53 57 71 68 65 63 64 63 55
34 16 3 6 6 28 43 66 71 68 62 59 67 65 53 55 56 54 53 52 52 54 56 61 53 42 62 69 71 72 70 68
Wind_Direction_500mb
151 155 156 158 160 163 166 168 169 168 170 180 172 198 223 169 165 160 152 136 141 154 163 210 293 313 55 28 184 202 243 242
154 158 159 163 164 168 167 169 169 171 172 178 191 222 167 151 159 154 146 152 153 143 189 293 33 46 65 69 68 88 201 133
157 160 161 165 167 168 170 169 170 173 172 181 195 154 156 152 151 166 154 154 162 190 180 117 65 30 89 89 63 75 112 121
160 165 165 168 170 170 170 169 169 169 173 170 183 143 150 150 154 153 155 159 158 179 143 133 162 87 86 87 85 88 122 112
166 169 169 171 173 174 171 170 167 167 169 161 145 154 153 146 130 143 156 156 164 164 165 165 175 122 103 108 96 107 125 112
165 169 170 170 175 173 171 170 169 168 173 149 155 157 151 151 143 147 147 158 164 181 178 184 182 150 116 123 99 107 125 125
168 170 170 171 175 175 173 170 172 170 166 162 161 164 160 156 163 177 187 190 186 183 188 173 197 172 140 136 112 117 129 132
162 167 168 172 176 175 175 173 178 175 170 168 163 176 165 148 185 180 169 144 156 164 183 170 193 161 142 149 134 132 133 137
160 168 171 175 177 177 177 176 183 178 169 166 161 171 165 171 153 160 144 135 141 155 154 152 159 152 150 148 132 157 143 138
162 166 171 177 180 181 180 180 182 179 171 167 163 160 165 172 157 135 146 127 121 127 136 135 129 136 144 145 140 145 135 128
182 171 173 178 182 186 182 183 182 180 174 170 169 163 174 177 153 153 131 133 126 125 131 140 141 137 148 152 143 138 135 146
211 174 174 177 185 188 185 184 182 182 177 173 169 159 174 165 158 159 166 162 159 153 155 153 151 147 163 158 153 153 156 154
224 188 180 182 187 188 187 185 183 185 180 179 175 174 178 172 171 166 175 191 201 196 169 142 145 152 155 157 161 164 159 159
224 218 184 183 188 190 190 188 186 187 179 181 184 184 184 184 187 183 184 190 211 143 188 166 141 129 149 161 152 157 160 162
245 216 196 186 189 192 193 191 190 191 183 186 190 190 189 189 190 194 196 183 201 203 181 169 182 177 153 156 156 160 170 173
279 229 208 195 189 194 195 194 192 194 191 193 193 193 197 195 194 197 199 207 200 205 202 203 187 193 188 188 182 180 184 188
330 238 221 204 195 196 197 196 196 194 197 195 196 201 199 198 200 200 202 201 203 202 207 206 202 197 201 202 204 202 200 201
346 338 234 218 211 196 197 199 199 195 202 200 202 203 200 203 202 201 206 204 201 199 214 211 207 205 206 206 207 208 213 219
348 338 317 293 224 204 200 200 200 195 199 206 208 202 206 206 204 207 207 208 206 203 209 226 221 217 216 217 217 216 214 212
351 27 225 28 311 205 201 202 200 197 200 206 208 211 207 209 209 210 211 212 212 210 209 222 231 227 228 228 230 230 228 225
Wind_Speed_850mb
56 56 53 50 48 43 41 37 33 30 28 21 19 16 11 14 15 19 13 14 13 10 5 5 9 7 4 2 4 8 8 10
56 53 50 46 44 42 38 35 32 28 29 25 19 14 8 19 14 25 20 14 13 13 7 6 4 6 11 17 14 4 2 5
52 49 49 47 44 41 37 35 32 28 28 25 12 9 14 18 16 24 24 20 16 16 7 12 6 9 10 14 10 12 11 17
48 48 47 47 45 41 38 36 33 30 27 22 5 17 21 15 16 22 24 24 16 12 13 15 11 4 14 16 15 18 23 20
47 46 46 46 44 43 40 37 33 31 30 14 24 26 18 21 19 21 20 22 20 18 15 16 12 12 14 17 17 17 24 30
45 45 47 47 42 42 39 37 35 33 33 24 28 26 23 22 19 17 17 22 24 22 18 14 15 11 13 15 17 20 26 35
46 47 49 45 45 44 42 39 37 34 32 33 27 30 24 24 20 21 17 21 22 22 20 19 12 13 13 18 21 20 29 34
49 48 49 49 48 47 44 41 39 37 32 33 32 25 19 21 19 19 13 16 15 16 22 20 13 13 17 25 26 28 35 34
46 50 51 52 52 50 46 42 40 38 34 34 35 26 21 16 13 17 17 15 11 14 25 19 10 15 22 27 27 25 32 36
47 52 53 54 54 53 49 46 41 39 37 37 37 33 28 21 15 20 20 18 19 26 29 21 19 20 30 31 31 34 32 31
33 50 54 55 56 55 51 48 45 42 41 40 44 32 35 22 25 19 21 22 22 29 28 21 18 20 26 34 42 43 41 37
20 51 55 57 58 54 51 50 47 46 47 44 41 39 38 22 25 31 18 18 19 23 23 25 19 11 27 43 51 45 44 45
25 44 56 57 58 56 55 52 50 49 51 49 46 43 41 34 28 27 23 23 27 24 32 22 20 19 30 42 46 48 46 46
21 28 55 56 56 56 56 54 55 54 56 52 49 45 44 37 39 34 29 29 20 14 32 24 19 18 25 39 43 45 46 42
16 29 40 55 55 57 57 57 59 58 61 55 51 46 49 44 42 39 38 36 34 24 26 24 24 25 18 39 49 38 31 36
11 21 39 50 58 58 58 59 61 62 63 57 54 54 49 48 46 43 39 45 41 42 33 30 25 29 25 27 41 44 42 41
14 17 26 45 56 57 59 60 63 65 67 60 58 52 47 44 46 45 43 44 39 40 53 46 39 36 34 31 41 47 51 50
29 18 19 35 46 56 59 61 64 66 65 62 61 52 51 50 47 49 47 45 46 49 50 61 62 55 53 52 52 54 52 50
30 24 10 8 31 46 56 64 66 67 62 60 60 55 52 51 50 51 50 50 51 54 57 53 57 71 68 65 63 64 63 55
34 16 3 6 6 28 43 66 71 68 62 59 67 65 53 55 56 54 53 52 52 54 56 61 53 42 62 69 71 72 70 68
Wind_Direction_850mb
151 155 156 158 160 163 166 168 169 168 170 180 172 198 223 169 165 160 152 136 141 154 163 210 293 313 55 28 184 202 243 242
154 158 159 163 164 168 167 169 169 171 172 178 191 222 167 151 159 154 146 152 153 143 189 293 33 46 65 69 68 88 201 133
157 160 161 165 167 168 170 169 170 173 172 181 195 154 156 152 151 166 154 154 162 190 180 117 65 30 89 89 63 75 112 121
160 165 165 168 170 170 170 169 169 169 173 170 183 143 150 150 154 153 155 159 158 179 143 133 162 87 86 87 85 88 122 112
166 169 169 171 173 174 171 170 167 167 169 161 145 154 153 146 130 143 156 156 164 164 165 165 175 122 103 108 96 107 125 112
165 169 170 170 175 173 171 170 169 168 173 149 155 157 151 151 143 147 147 158 164 181 178 184 182 150 116 123 99 107 125 125
168 170 170 171 175 175 173 170 172 170 166 162 161 164 160 156 163 177 187 190 186 183 188 173 197 172 140 136 112 117 129 132
162 167 168 172 176 175 175 173 178 175 170 168 163 176 165 148 185 180 169 144 156 164 183 170 193 161 142 149 134 132 133 137
160 168 171 175 177 177 177 176 183 178 169 166 161 171 165 171 153 160 144 135 141 155 154 152 159 152 150 148 132 157 143 138
162 166 171 177 180 181 180 180 182 179 171 167 163 160 165 172 157 135 146 127 121 127 136 135 129 136 144 145 140 145 135 128
182 171 173 178 182 186 182 183 182 180 174 170 169 163 174 177 153 153 131 133 126 125 131 140 141 137 148 152 143 138 135 146
211 174 174 177 185 188 185 184 182 182 177 173 169 159 174 165 158 159 166 162 159 153 155 153 151 147 163 158 153 153 156 154
224 188 180 182 187 188 187 185 183 185 180 179 175 174 178 172 171 166 175 191 201 196 169 142 145 152 155 157 161 164 159 159
224 218 184 183 188 190 190 188 186 187 179 181 184 184 184 184 187 183 184 190 211 143 188 166 141 129 149 161 152 157 160 162
245 216 196 186 189 192 193 191 190 191 183 186 190 190 189 189 190 194 196 183 201 203 181 169 182 177 153 156 156 160 170 173
279 229 208 195 189 194 195 194 192 194 191 193 193 193 197 195 194 197 199 207 200 205 202 203 187 193 188 188 182 180 184 188
330 238 221 204 195 196 197 196 196 194 197 195 196 201 199 198 200 200 202 201 203 202 207 206 202 197 201 202 204 202 200 201
346 338 234 218 211 196 197 199 199 195 202 200 202 203 200 203 202 201 206 204 201 199 214 211 207 205 206 206 207 208 213 219
348 338 317 293 224 204 200 200 200 195 199 206 208 202 206 206 204 207 207 208 206 203 209 226 221 217 216 217 217 216 214 212
351 27 225 28 311 205 201 202 200 197 200 206 208 211 207 209 209 210 211 212 212 210 209 222 231 227 228 228 230 230 228 225